Weather in Kaverino

Russia / Ryazan Oblast     54°09′34″N   41°46′17″E
temp.,
°C
wind,
m/s
gust,
m/s
humid.,
%
clouds,
%
prec.,
mm/h
press.,
hPa
HPBL,
m
9 december, thu
thu900:000ese2797100 0.1 1017228
03:00+1ese2599100 0.4 1017178
06:000ese2399100 0.1 1018149
09:000nne12100100 0.3 101997
12:00−2n4696100 0.4 1020203
15:00−2n5794100 0.4 1022302
18:00−4n699399 0.1 1024341
21:00−5nne599485 0.1 1025298
10 december, fri
fri1000:00−6nne599273 0.0 1027284
03:00−7nne598820 0.0 1028284
06:00−7ne59825 0.0 1030321
09:00−8ne48835 0.0 1031300
12:00−6ne46765 0.0 1032327
15:00−6ne47825 0.0 1032304
18:00−8ne48875 0.0 1034267
21:00−8ene49855 0.0 1034290
11 december, sat
sat1100:00−9ene49845 0.0 1034267
03:00−9ene48855 0.0 1035241
06:00−9ene49865 0.0 1035231
09:00−9ene49845 0.0 1036244
12:00−7e49765 0.0 1036293
15:00−6e49765 0.0 1036273
18:00−7e411795 0.0 1037261
21:00−7e411775 0.0 1037252
12 december, sun
sun1200:00−7ese411755 0.0 1037247
03:00−8ese25824 0.0 1039116
06:00−8ese38795 0.0 1039172
09:00−8se39795 0.0 1039198
12:00−5se39765 0.0 1039289
15:00−5ese36815 0.0 1039135
18:00−6se410785 0.0 1039185
21:00−6se310775 0.0 1039183
13 december, mon
mon1300:00−6se411705 0.0 1038222
03:00−7se3107365 0.0 1038202
06:00−7se4117182 0.0 1038229
09:00−7se4117398 0.0 1038239
12:00−5se51364100 0.0 1036348
15:00−4se41162100 0.0 1035285
18:00−5se41265100 0.0 1035295
21:00−4se51362100 0.0 1034340